Home > Weather > Seattle > Past weeks

Flag for USA Past 2 weeks in Seattle, Washington, USA

Now
47 °F

Passing clouds.


Feels Like: 43 °F
Forecast: 43 / 51 °F
Wind: 8 mph from SW

Location: Seattle Boeing Field


UV Index: 0 (Low)

Visibility: 10 mi


Pressure: 30.00 "Hg

Humidity: 83%

Dew point: 42 °F

Location of Seattle

Historic Weather in Seattle

°F

Past Weeks' High & Low Weather Summary

 TemperatureHumidityPressure
High57 °F (Mar 18, 3:53 AM)100% (Mar 14, 9:53 PM)30.32 "Hg (Mar 14, 9:53 PM)
Low33 °F (Mar 19, 7:53 AM)43% (Mar 19, 3:53 PM)29.59 "Hg (Mar 18, 2:53 AM)
Average48 °F84%29.98 "Hg
* Reported Mar 14 9:53 PM — Mar 29 9:53 PM, Seattle, Weather by CustomWeather, © 2014

Note: Actual official high and low records may vary slightly from our data, if they occured in-between our weather recording intervals... More about our weather records

Advertising

Historic Weather Conditions — Data for Previous 24 hours

 ConditionsComfort  
Time TempWeatherWind HumidityBarometerVisibility
9:53 PM
Mar 29
47 °FPartly cloudy.10 mph83%30.00 "Hg10 mi
8:53 PM47 °FPassing clouds.7 mph80%29.97 "Hg10 mi
7:53 PM49 °FPassing clouds.12 mph77%29.93 "Hg10 mi
6:53 PM51 °FScattered clouds.15 mph77%29.92 "Hg10 mi
5:53 PM53 °FScattered clouds.10 mph77%29.92 "Hg10 mi
4:53 PM55 °FScattered clouds.16 mph74%29.89 "Hg10 mi
3:53 PM56 °FBroken clouds.21 mph77%29.87 "Hg10 mi
2:53 PM54 °FCloudy.14 mph90%29.86 "Hg10 mi
1:53 PM56 °FMostly cloudy.18 mph84%29.85 "Hg10 mi
1:32 PM56 °FCloudy.14 mph81%29.85 "Hg10 mi
12:53 PM55 °FLight rain. Overcast.14 mph87%29.84 "Hg9 mi
11:53 AM55 °FFog.10 mph90%29.83 "Hg5 mi
10:53 AM53 °FFog.15 mph93%29.82 "Hg2 mi
10:16 AM50 °FFog.10 mph100%29.82 "Hg2 mi
9:43 AM49 °FFog.10 mph100%29.82 "Hg2 mi
8:53 AM48 °FLight rain. Fog.10 mph100%29.84 "Hg1 mi
8:32 AM47 °FLight rain. Fog.9 mph100%29.85 "Hg1 mi
7:53 AM47 °FLight rain. Fog.7 mph100%29.86 "Hg1 mi
7:25 AM47 °FLight rain. Fog.8 mph100%29.88 "Hg2 mi
6:53 AM47 °FLight rain. Fog.6 mph100%29.88 "Hg5 mi
5:53 AM47 °FLight rain. Mostly cloudy.6 mph100%29.90 "Hg9 mi
4:53 AM47 °FLight rain. Overcast.5 mph100%29.94 "Hg10 mi
3:53 AM47 °FLight rain. Fog.No wind100%30.00 "Hg5 mi
2:53 AM47 °FLight rain. Overcast.7 mph100%30.03 "Hg9 mi
1:53 AM46 °FLight rain. Overcast.3 mph100%30.08 "Hg7 mi
12:53 AM47 °FLight rain. Overcast.3 mph93%30.12 "Hg8 mi
11:53 PM
Mar 28
49 °FLight rain. Overcast.7 mph84%30.14 "Hg10 mi
Weather by CustomWeather, © 2014

See weather overview